www.pogodaiklimat.ru

Погода и климат >> Архив погоды >> Турция >> Edirne


ПОГОДА в Edirne

  • Прогноз погоды в Edirne
  • Монитор погоды в Edirne
  • Климат города

АРХИВ ПОГОДЫ в Edirne

Время (UTC), дата Ветер
(напр.,м/с)
 
Видим.   Явления Облачность Т
(С)
Тd
(С)
f
(%)
Тe
(С)
Тes
(С)
Комфортность P
(гПа)
Po
(гПа)
Тmin
(С)
Tmax
(С)
R
(мм)
R24
(мм)
S
(см)
00 11.01 С 2
{3}
20 км 10/6 900 м
[Sc As op]
+7.8 +6.0 88 +6 +6 1014.7 1008.5
03 11.01 СЗ 1
{2}
15 км 9/6 900 м
[Sc Ac As]
+5.5 +4.0 90 +4 +4 1012.8 1006.5
06 11.01 С 2 11 км слабый дождь 10/8 900 м
[Sc As op]
+5.4 +4.0 91 +3 +3 1012.5 1006.2 +5.2 0.8
07 11.01 СЗ 1 6000 м слабый дождь 10/6 600 м
[Sc As op]
+6.3 +5.0 91 +5 +5 1012.6 1006.3
08 11.01 С 2 3500 м слабый дождь 10/6 600 м
[Sc As op]
+5.9 +5.0 94 +3 +3 1012.4 1006.1
09 11.01 С 2
{4}
3500 м слабый дождь 10/6 900 м
[Sc As op]
+7.0 +6.0 93 +5 +5 1012.4 1006.1
10 11.01 С 1 3300 м слабый дождь 10/6 600 м
[Sc As op]
+6.7 +6.0 95 +5 +6 1011.9 1005.6
11 11.01 С 1 6000 м слабый дождь 10/6 1000 м
[Sc As op]
+7.3 +6.0 91 +6 +7 1011.4 1005.1
12 11.01 СЗ 1
{5}
6000 м слабый дождь 10/6 1000 м
[Sc As op]
+8.1 +7.0 93 +7 +7 1011.0 1004.8 7
13 11.01 С 2 8000 м слабый дождь 10/6 600 м
[Sc As op]
+7.4 +6.0 91 +6 +6 1011.0 1004.7
14 11.01 СЗ 1 7000 м слабый дождь 10/6 1000 м
[Sc As op]
+7.4 +6.0 91 +6 +6 1011.3 1005.0
15 11.01 С 2
{3}
5000 м слабый дождь 10/6 1000 м
[Sc As op]
+7.4 +6.0 91 +6 +6 1011.2 1004.9
16 11.01 С 1 15 км в посл. час дождь 10/6 1000 м
[Sc As op]
+7.3 +6.0 91 +6 +6 1011.6 1005.3
17 11.01 СЗ 1 15 км 9/6 1000 м
[Sc Ac As]
+7.3 +6.0 91 +6 +6 1012.1 1005.8
18 11.01 С 1
{4}
13 км {дождь} 9/6 1050 м
[Sc Ac As]
+7.4 +7.0 97 +7 +7 1012.6 1006.3 +8.2 7
21 11.01 З 1
{2}
15 км 9/6 1050 м
[Sc Ac As]
+8.4 +7.0 91 +9 +9 1013.2 1006.9
00 12.01 З 1
{2}
15 км 9/6 1050 м
[Sc Ac As]
+8.4 +7.0 91 +9 +9 1013.9 1007.6
03 12.01 С 3
{6}
15 км 9/6 1050 м
[Sc Ac As]
+7.8 +6.0 88 +5 +5 1014.5 1008.2
06 12.01 С 2 20 км 9/6 1050 м
[Sc Ac As]
+7.4 +5.0 85 +6 +6 1016.0 1009.7 +7.3
07 12.01 С 2 9000 м слабый дождь 10/6 600 м
[Sc As op]
+7.2 +5.0 86 +5 +5 1016.5 1010.2
08 12.01 С 2 8000 м слабый дождь 10/6 600 м
[Sc As op]
+7.3 +6.0 91 +5 +5 1017.3 1011.0
09 12.01 С 2
{6}
6000 м слабый дождь 10/6 900 м
[Sc As op]
+7.4 +6.0 91 +5 +5 1017.7 1011.4
10 12.01 С 2 8000 м слабый дождь 10/6 600 м
[Sc As op]
+7.9 +7.0 94 +6 +7 1017.7 1011.4
11 12.01 С 2 10 км слабый дождь 10/6 600 м
[Sc As op]
+9.4 +8.0 91 +8 +8 1017.7 1011.4
12 12.01 С 2
{6}
6000 м слабый дождь 10/6 900 м
[Sc As op]
+9.6 +8.0 90 +8 +9 1018.0 1011.7 5
13 12.01 С 3 20 км в посл. час дождь 10/6 1000 м
[Sc As op]
+8.7 +6.0 83 +6 +6 1018.7 1012.4
14 12.01 С 3 20 км 10/6 1000 м
[Sc As op]
+8.1 +6.0 87 +5 +5 1019.2 1012.9
15 12.01 С 3
{7}
20 км {дождь} 10/6 1050 м
[Sc As op]
+8.4 +5.0 79 +6 +6 1020.0 1013.7
16 12.01 С 2 20 км 10/6 1000 м
[Sc As op]
+7.3 +5.0 85 +5 +5 1020.5 1014.2
17 12.01 С 3 20 км 9/5 1000 м
[Sc Ac As]
+7.3 +5.0 85 +4 +4 1020.9 1014.6
18 12.01 С 3
{7}
15 км слабый дождь 10/6 900 м
[Sc As op]
+7.2 +5.0 86 +4 +4 1021.6 1015.3 +9.7 5
21 12.01 С 3
{6}
20 км {дождь} 8/5 1050 м
[Sc Ac As]
+6.9 +5.0 88 +4 +4 1022.8 1016.5
00 13.01 С 4
{6}
20 км {дождь} 8/5 1050 м
[Sc Ac As]
+5.9 +3.0 82 +2 +2 1022.8 1016.5 0.2
03 13.01 С 3
{6}
20 км 8/5 1050 м
[Sc Ac As]
+6.0 +3.0 81 +3 +3 1022.4 1016.1
06 13.01 С 2 20 км 9/5 1050 м
[Sc Ac As]
+6.0 +2.0 75 +4 +4 1022.9 1016.6 +5.9 0.2
07 13.01 С 2 20 км 9/6 1000 м
[Sc Ac As]
+5.9 +2.0 76 +4 +4 1022.6 1016.3
08 13.01 С 3 20 км 9/6 600 м
[Sc Ac As]
+6.4 +3.0 79 +3 +4 1023.6 1017.2
09 13.01 С 3
{6}
20 км 10/8 900 м
[Sc As op]
+6.5 +2.0 73 +4 +4 1023.9 1017.5
10 13.01 С 4 20 км 10/8 600 м
[Sc As op]
+7.0 +3.0 76 +4 +4 1022.6 1016.3
11 13.01 С 3 20 км 10/8 600 м
[Sc As op]
+6.1 +2.0 75 +3 +3 1022.3 1016.0
12 13.01 С 4
{7}
20 км 10/8 900 м
[Sc As op]
+6.1 +2.0 75 +3 +3 1021.9 1015.5
13 13.01 С 5 20 км 10/8 600 м
[Sc As op]
+6.4 +3.0 79 +2 +2 1022.0 1015.6
14 13.01 С 3 20 км 10/8 600 м
[Sc As op]
+5.5 +2.0 78 +2 +2 1022.3 1015.9
15 13.01 С 3
{8}
20 км слабый дождь 10/8 900 м
[Sc As op]
+5.2 +2.0 80 +2 +2 1022.5 1016.1
16 13.01 С 3 20 км в посл. час дождь 10/8 600 м
[Sc As op]
+4.7 +1.0 77 +1 +1 1022.7 1016.3
17 13.01 С 4 20 км 10/6 600 м
[Sc As op]
+4.2 0.0 74 0 0 1023.1 1016.7
18 13.01 С 5
{9}
20 км {дождь} 10/6 900 м
[Sc As op]
+4.0 0.0 75 -1 -1 1023.3 1016.9 +7.0 0.0
21 13.01 С 6
{10}
20 км 9/6 900 м
[Sc Ac As]
+2.9 0.0 81 -3 -3 1024.0 1017.6
00 14.01 С 6
{11}
20 км 9/6 900 м
[Sc Ac As]
+2.3 -1.0 79 -3 -3 1024.8 1018.4
03 14.01 С 7
{11}
20 км 9/6 900 м
[Sc Ac As]
+1.0 -2.0 80 -6 -6 1025.0 1018.6
06 14.01 С 7
{11}
20 км 9/6 1050 м
[Sc Ac As]
+0.3 -3.0 78 -7 -7 1026.7 1020.2 +0.3
07 14.01 С 6 20 км 9/6 1000 м
[Sc Ac As]
+0.1 -3.0 80 -6 -6 1027.6 1021.1
08 14.01 С 6 20 км 9/6 1000 м
[Sc Ac As]
+1.1 -3.0 74 -5 -5 1028.0 1021.5
09 14.01 С 6
{11}
20 км 5/3 1050 м
[Sc Ac trans]
+1.8 -3.0 70 -4 -3 1028.4 1021.9
10 14.01 С 5 20 км 4/4 1000 м
[Sc]
+2.3 -3.0 68 -3 -1 1028.2 1021.7
11 14.01 С 5 20 км 6/4 1000 м
[Sc Ac As]
+1.5 -3.0 72 -4 -3 1028.5 1022.0
12 14.01 С 6
{11}
20 км 6/4 1050 м
[Sc Ac As]
+2.0 -3.0 69 -4 -3 1028.3 1021.8
13 14.01 С 4 20 км 5/3 1000 м
[Sc Ac trans]
+2.6 -3.0 67 -2 -1 1028.7 1022.2
14 14.01 С 4 20 км 4/0
[Ac trans]
+1.5 -4.0 67 -3 -3 1029.2 1022.7
15 14.01 С 3
{9}
20 км 6/4 1050 м
[Sc Ac As]
+1.2 -3.0 74 -3 -3 1029.5 1023.0
16 14.01 С 3 20 км 8/5 1000 м
[Sc Ac As]
+0.2 -4.0 73 -4 -4 1029.8 1023.3
17 14.01 С 2 20 км 9/6 1000 м
[Sc Ac As]
+0.5 -3.0 77 -2 -2 1030.4 1023.9
18 14.01 С 1
{9}
20 км 8/5 1050 м
[Sc Ac As]
-0.2 -4.0 76 -2 -2 1030.8 1024.2 +3.3
21 14.01 С 1
{4}
20 км ясно -1.7 -4.0 84 -4 -4 1031.7 1025.1
00 15.01 С 2
{5}
20 км 6/4 1050 м
[Sc Ac As]
-1.6 -4.0 84 -6 -6 1031.3 1024.7
03 15.01 С 2
{5}
20 км 8/5 1050 м
[Sc Ac As]
-1.5 -4.0 83 -5 -5 1030.4 1023.8
06 15.01 С 2
{5}
20 км 8/5 1050 м
[Sc Ac As]
-0.7 -3.0 84 -4 -4 1030.3 1023.7 -1.8
07 15.01 С 2 20 км 8/5 1000 м
[Sc Ac As]
-0.9 -3.0 86 -4 -4 1030.6 1024.0
08 15.01 С 2 20 км 8/5 1000 м
[Sc Ac As]
-0.3 -3.0 82 -4 -3 1030.8 1024.2
09 15.01 С 2
{4}
20 км 8/5 1050 м
[Sc Ac As]
+1.2 -2.0 79 -2 -1 1030.4 1023.8
10 15.01 С 2 20 км 8/5 1000 м
[Sc Ac As]
+2.5 -1.0 78 0 +2 1029.6 1023.1
11 15.01 С 2 20 км 8/5 1000 м
[Sc Ac As]
+3.0 -1.0 75 +1 +2 1029.2 1022.7
12 15.01 С 2
{4}
20 км 10/6 1050 м
[Sc As op]
+3.8 0.0 76 +2 +2 1028.5 1022.0
13 15.01 С 2 20 км 10/6 1000 м
[Sc As op]
+3.6 0.0 77 +1 +2 1028.1 1021.6
14 15.01 С 2 10 км слабый снег 10/6 600 м
[Sc As op]
+2.2 0.0 85 -0 -0 1027.8 1021.3
15 15.01 С 1
{4}
6000 м слабый снег 10/6 900 м
[Sc As op]
+1.0 0.0 93 -1 -1 1027.5 1021.0
16 15.01 С 1 6000 м слабый снег 10/6 600 м
[Sc As op]
+1.3 0.0 91 -1 -1 1027.5 1021.0
17 15.01 С 1 10 км слабый дождь со снегом 10/6 600 м
[Sc As op]
+1.2 0.0 92 -1 -1 1027.4 1020.9
18 15.01 С 1
{4}
10 км слабый дождь со снегом 10/6 900 м
[Sc As op]
+1.2 0.0 92 -1 -1 1027.2 1020.7 +3.9 2
21 15.01 СЗ 1
{3}
20 км {снег} 10/6 1050 м
[Sc As op]
+1.2 0.0 92 -1 -1 1025.3 1018.8
00 16.01 С 1
{3}
20 км {снег} 10/6 1050 м
[Sc As op]
+1.0 0.0 93 0 0 1022.8 1016.4 0.2
03 16.01 СЗ 1
{2}
20 км 10/6 1050 м
[Sc As op]
+1.8 +1.0 94 -0 -0 1020.6 1014.1
06 16.01 З 1 20 км 10/6 1050 м
[Sc As op]
+1.0 0.0 93 -1 -1 1019.2 1012.7 +0.7 0.2
07 16.01 З 1 20 км 10/6 1000 м
[Sc As op]
+1.8 0.0 88 0 0 1018.8 1012.4
08 16.01 СЗ 2 20 км 10/6 1000 м
[Sc As op]
+1.7 0.0 88 -1 -1 1018.9 1012.5
09 16.01 СЗ 3
{4}
20 км 10/6 1050 м
[Sc As op]
+2.6 +1.0 89 -1 -1 1018.9 1012.5
10 16.01 З 2 8000 м дымка 10/6 1000 м
[Sc As op]
+3.1 +1.0 86 +1 +1 1018.0 1011.6
11 16.01 ЮЗ 1 8000 м дымка 10/6 1000 м
[Sc As op]
+3.7 +1.0 83 +2 +3 1016.7 1010.3
12 16.01 СЗ 1
{4}
8000 м дымка 10/6 1050 м
[Sc As op]
+3.4 +1.0 84 +2 +2 1015.7 1009.3
13 16.01 Ю 1 9000 м дымка 10/6 1000 м
[Sc As op]
+4.4 +2.0 84 +3 +3 1015.0 1008.6
14 16.01 С 1 5000 м дымка 10/6 1000 м
[Sc As op]
+4.1 +2.0 86 +4 +4 1014.8 1008.4
15 16.01 ЮВ 1
{2}
7000 м дымка 10/6 900 м
[Sc As op]
+4.1 +2.0 86 +4 +4 1014.2 1007.8
16 16.01 ЮВ 2 8000 м дымка 10/6 1000 м
[Sc As op]
+4.1 +2.0 86 +1 +1 1013.8 1007.4
17 16.01 Ю 1 800 м туман ?/? +4.1 +3.0 93 +4 +4 1013.2 1006.8
18 16.01 Ю 1
{4}
800 м туман ?/? +4.9 +4.0 94 +3 +3 1012.6 1006.2 +5.0
21 16.01 Ю 1
{3}
900 м туман ?/? +5.8 +5.0 95 +4 +4 1011.3 1005.0
00 17.01 СЗ 1
{3}
800 м туман ?/? +4.9 +4.0 94 +5 +5 1009.7 1003.4
03 17.01 З 1
{2}
800 м туман ?/? +4.0 +3.0 93 +4 +4 1008.1 1001.8
06 17.01 Ю 1
{3}
500 м туман ?/? +3.4 +3.0 97 +3 +3 1006.8 1000.5 +3.3
07 17.01 ЮВ 1 500 м туман ?/? +3.4 +3.0 97 +2 +2 1006.6 1000.3
08 17.01 Ю 1 500 м туман ?/? +3.6 +3.0 96 +2 +2 1006.8 1000.5
09 17.01 Ю 1
{2}
500 м туман ?/? +4.0 +3.0 93 +2 +2 1006.6 1000.3
10 17.01 Ю 2 5000 м в посл. час туман 10/10 600 м
[St]
+4.8 +4.0 95 +2 +2 1004.8 998.5
11 17.01 Ю 2 8000 м дымка 10/6 1000 м
[Sc As op]
+7.0 +6.0 93 +5 +6 1002.8 996.6
12 17.01 ЮВ 2
{4}
20 км {туман} 4/0
[Ac trans]
+10.5 +7.0 79 +9 +12 1000.3 994.1
13 17.01 Ю 4 20 км 4/4 1000 м
[Cu med, cong]
+15.3 +8.0 62 +14 +15 998.8 992.7
14 17.01 Ю 4 20 км 5/5 1000 м
[Cu med, cong]
+14.8 +7.0 60 +14 +14 998.3 992.2
15 17.01 Ю 4
{10}
20 км 5/5 1050 м
[Cu med, cong]
+13.2 +7.0 66 +12 +12 996.9 990.8
16 17.01 Ю 4 20 км 6/4 1000 м
[Cu med, cong Ac As]
+13.3 +8.0 70 +12 +12 996.4 990.3
17 17.01 Ю 5 20 км 8/5 1000 м
[Cu med, cong Ac As]
+12.5 +8.0 74 +10 +10 994.8 988.7
18 17.01 Ю 4
{10}
20 км 8/5 1050 м
[Cu med, cong Ac As]
+12.8 +9.0 78 +11 +11 994.2 988.1 +15.4 0.2
21 17.01 Ю 4
{9}
20 км {ливн. осадки} 9/6 1050 м
[Cu med, cong Ac As]
+13.4 +10.0 80 +12 +12 990.7 984.6

 

Местоположение метеостанции Edirne (Турция): широта 41.67 долгота 26.57 высота над уровнем моря 51 м.

В архиве по умолчанию представлена погода в Edirne за последнюю неделю. Архивные данные за месяц целиком и за предыдущие месяцы, начиная с января 2011 года, Вы можете получить, выбрав интересующий диапазон дат из раскрывающегося списка и нажав кнопку "Ввод!".

Внимание! Время в таблицах - всемирное. Для получения местного времени необходимо прибавить поправку, которая в Edirne равна 2 ч.

Смотрите также архив погоды в соседних городах и на ближайших метеорологических станциях:

Погода в Kirklareli (Турция) (54 км)
Погода в Kurdjali (Болгария) (100 км)
Погода в Alexandroupoli (Греция) (106 км)
Погода в Tekirdag (Турция) (112 км)
Погода в Sliven (Болгария) (113 км)
Погода в Burgas (Болгария) (117 км)
Погода в Canakkale (Турция) (172 км)
Погода в Gokceada Airport (Турция) (173 км)
Погода в Gokceada (Турция) (175 км)
Погода в Chrysopouli (Греция) (182 км)

Пояснения к столбцам:

Ветер - указаны скорость ветра в м/с - средняя за 10 мин, порывы в срок и между сроками (в фигурных скобках) и направление, откуда дует ветер: С - северный, СВ - северо-восточный, В - восточный, ЮВ - юго-восточный, Ю - южный, ЮЗ - юго-западный, З - западный, СЗ - северо-западный.
Видимость - горизонтальная дальность видимости в метрах или километрах. При видимости от 1 до 10 км при отсутствии осадков обычно наблюдается дымка, при ухудшении видимости до 1 км и менее - туман. В сухую погоду видимость может ухудшаться дымом, пылью или мглою.
Явления - указаны атмосферные явления, наблюдавшиеся в срок или в последний час перед сроком; фигурными скобками обозначены явления, наблюдавшиеся между сроками (за 1-3 часа до срока); квадратными скобками обозначены град или гололедные отложения с указанием их диаметра в мм.
Облачность - указаны через наклонную черту общая и нижняя облачность в баллах и высота нижней границы облаков в метрах; квадратными скобками обозначены формы облаков: Ci - перистые, Cs - перисто-слоистые, Cc - перисто-кучевые, Ac - высококучевые, As - высокослоистые, Sc - слоисто-кучевые, Ns - слоисто-дождевые, Cu - кучевые, Cb - кучево-дождевые. Подробнее классификацию облаков см. в Атласе облаков (PDF).
T - Температура воздуха - температура, измеренная на высоте 2 м над землей.
Td - Температура точки росы - температура, при понижении до которой содержащийся в воздухе водяной пар достигнет насыщения.
f - Относительная влажность воздуха - влажноcть воздуха, измеренная на высоте 2 м над землей.
Te - Эффективная температура - температура, которую ощущает одетый по сезону человек в тени. Характеристика душности погоды. При расчете учитывается влияние влажности воздуха и скорости ветра на теплоощущения человека.
Tes - Эффективная температура на солнце - температура, которую ощущает человек, с поправкой на солнечный нагрев. Характеристика знойности погоды. Зависит от высоты солнца над горизонтом, облачности и скорости ветра. Ночью, в пасмурную погоду, а также при ветре 12 м/с и более поправка равна нулю.
P - Атмосферное давление - приведенное к уровню моря атмосферное давление.
Po - Атмосферное давление - измеренное на уровне метеостанции атмосферное давление.
Tmin - Минимальная температура - минимум температуры воздуха на высоте 2 м над землей.
Tmax - Максимальная температура - максимум температуры воздуха на высоте 2 м над землей.
R - Количество осадков - Количество выпавших осадков за период времени, мм. При наведении курсора мыши на число - период времени, за который выпало указанное количество осадков.
R24 - Количество осадков - Количество выпавших осадков за 24 часа, мм.
S - Снежный покров - Высота снежного покрова, см. При наведении курсора мыши на число - состояние снежного покрова и степень покрытия местности в баллах.